Hawarden, United Kingdom

8:14 AM BST on August 23, 2017 (GMT +0100)
Hawarden

Weather History for EGNR - August, 2014

Change the Weather History Date:

Sunday, August 24, 2014

  Actual Average (EGGP) Record (EGGP)
Temperature  
Mean Temperature 56 °F -  
Max Temperature 63 °F 63 °F 77 °F (2003)
Min Temperature 48 °F 52 °F 50 °F (2014)
Degree Days  
Heating Degree Days 10    
Growing Degree Days 6 (Base 50)    
Moisture  
Dew Point 48 °F    
Average Humidity 69    
Maximum Humidity 94    
Minimum Humidity 45    
Precipitation  
Precipitation 0.00 in - - ()
Sea Level Pressure  
Sea Level Pressure 30.05 in    
Wind  
Wind Speed 5 mph ()    
Max Wind Speed 10 mph    
Max Gust Speed -    
Visibility 9.5 miles    
Events Rain    
Averages and records for this station are not official NWS values.
T = Trace of Precipitation, MM = Missing Value Source: Averaged Metar Reports

Daily Weather History Graph

Daily Weather History Graph

Search for Another Location

Airport or City:

Trip Planner

Search our weather history database for the weather conditions in past years. The results will help you decide how hot, cold, wet, or windy it might be!

Date:

Astronomy

Aug. 24, 2014 Rise Set
Actual Time 6:07 AM BST 8:19 PM BST
Civil Twilight 5:29 AM BST 8:57 PM BST
Nautical Twilight 4:42 AM BST 9:44 PM BST
Astronomical Twilight 3:46 AM BST 10:39 PM BST
Moon 5:04 AM BST (8/24) 7:26 PM BST (8/24)
Length of Visible Light 15h 27m
Length of Day
14h 12m
Waning Crescent, 1% of the Moon is Illuminated
Aug 24
Waning Crescent
Aug 25
New
Sep 2
First Quarter
Sep 9
Full
Sep 16
Last Quarter

Hourly Weather History & Observations

Time (BST) Temp. Dew Point Humidity Pressure Visibility Wind Dir Wind Speed Gust Speed Precip Events Conditions
12:00 AM 52 °F 46 °F 73% 30.09 in 31 mi West 6.9 mph - -   Mostly Cloudy
1:00 AM 52 °F 46 °F 74% 30.09 in 28 mi WSW 10.4 mph - -   Mostly Cloudy
2:00 AM 51 °F 46 °F 77% 30.08 in 31 mi WSW 8.1 mph - -   Scattered Clouds
3:00 AM 51 °F 47 °F 83% 30.08 in 22 mi West 3.5 mph - - Rain Light Rain Showers
4:00 AM 50 °F 47 °F 85% 30.07 in 19 mi SSE 3.5 mph - - Rain Light Rain
5:00 AM 49 °F 46 °F 86% 30.07 in 25 mi SW 5.8 mph - - Rain Rain
6:00 AM 50 °F 45 °F 78% 30.08 in 28 mi WSW 6.9 mph - -   Scattered Clouds
7:00 AM 50 °F 47 °F 85% 30.08 in 28 mi SE 3.5 mph - -  
8:00 AM 50 °F 47 °F 84% 30.08 in 22 mi SE 4.6 mph - - Rain Rain
8:20 AM 51.8 °F 48.2 °F 88% 30.06 in 6.2 mi SSE 5.8 mph - N/A   Scattered Clouds
8:50 AM 51.8 °F 50.0 °F 94% 30.06 in 6.2 mi South 4.6 mph - N/A   Partly Cloudy
9:00 AM 53 °F 49 °F 80% 30.08 in 22 mi South 4.6 mph - -   Partly Cloudy
9:20 AM 57.2 °F 50.0 °F 77% 30.06 in 6.2 mi SE 4.6 mph - N/A   Partly Cloudy
9:50 AM 59.0 °F 50.0 °F 72% 30.06 in 6.2 mi Variable 3.5 mph - N/A   Scattered Clouds
10:00 AM 58 °F 48 °F 61% 30.07 in 28 mi SE 4.6 mph - -  
10:20 AM 60.8 °F 50.0 °F 68% 30.06 in 6.2 mi Variable 3.5 mph - N/A   Scattered Clouds
10:50 AM 60.8 °F 48.2 °F 63% 30.06 in 6.2 mi ESE 5.8 mph - N/A   Scattered Clouds
11:00 AM 59 °F 47 °F 56% 30.07 in 28 mi ESE 4.6 mph - -   Partly Cloudy
11:20 AM 60.8 °F 50.0 °F 68% 30.06 in 6.2 mi Variable 3.5 mph - N/A   Scattered Clouds
11:50 AM 60.8 °F 50.0 °F 68% 30.06 in 6.2 mi East 4.6 mph - N/A   Scattered Clouds
12:00 PM 60 °F 48 °F 54% 30.06 in 25 mi East 4.6 mph - -   Mostly Cloudy
12:20 PM 60.8 °F 50.0 °F 68% 30.06 in 6.2 mi Variable 2.3 mph - N/A   Scattered Clouds
12:50 PM 62.6 °F 48.2 °F 59% 30.06 in 6.2 mi Variable 2.3 mph - N/A   Scattered Clouds
1:00 PM 62 °F 47 °F 47% 30.06 in 25 mi SSE 1.2 mph - -   Partly Cloudy
1:20 PM 62.6 °F 50.0 °F 63% 30.06 in 6.2 mi SSE 5.8 mph - N/A   Scattered Clouds
1:50 PM 64.4 °F 48.2 °F 56% 30.04 in 6.2 mi Variable 3.5 mph - N/A   Scattered Clouds
2:00 PM 62 °F 46 °F 45% 30.04 in 28 mi SSE 4.6 mph - -   Partly Cloudy
2:20 PM 64.4 °F 48.2 °F 56% 30.04 in 6.2 mi SE 5.8 mph - N/A   Scattered Clouds
2:50 PM 60.8 °F 50.0 °F 68% 30.04 in 6.2 mi West 10.4 mph - N/A Rain Light Rain Showers
3:00 PM 58 °F 49 °F 63% 30.04 in 13 mi SSW 9.2 mph - - Rain Rain Showers
3:20 PM 59.0 °F 51.8 °F 77% 30.04 in 6.2 mi SW 4.6 mph - N/A   Mostly Cloudy
4:00 PM 60 °F 49 °F 59% 30.03 in 19 mi SW 3.5 mph - - Rain Rain
5:00 PM 60 °F 47 °F 51% 30.01 in 28 mi WNW 3.5 mph - -   Overcast
6:00 PM 61 °F 48 °F 52% 30.00 in 31 mi NE 4.6 mph - -   Mostly Cloudy
7:00 PM 60 °F 50 °F 60% 29.99 in 28 mi ESE 5.8 mph - -   Scattered Clouds
8:00 PM 58 °F 50 °F 68% 29.98 in 16 mi ESE 4.6 mph - - Rain Rain
9:00 PM 57 °F 50 °F 71% 29.98 in 16 mi ESE 3.5 mph - - Rain Light Rain Showers
10:00 PM 56 °F 50 °F 75% 29.97 in 17 mi ESE 4.6 mph - - Rain Rain
11:00 PM 56 °F 51 °F 77% 29.95 in 17 mi SSE 3.5 mph - - Rain Rain